Time,TemperatureF,DewpointF,PressureIn,WindDirection,WindDirectionDegrees,WindSpeedMPH,WindSpeedGustMPH,Humidity,HourlyPrecipIn,Conditions,Clouds,dailyrainin,SolarRadiationWatts/m^2,SoftwareType,DateUTC
2017-06-29 00:04:00,66.5,54.4,30.11,WSW,240,0.0,0.0,65,0.00,,,0.00,0,Wunderground v.1.15,2017-06-29 04:04:00,
2017-06-29 00:09:00,66.5,54.4,30.11,WSW,240,0.0,0.0,65,0.00,,,0.00,0,Wunderground v.1.15,2017-06-29 04:09:00,
2017-06-29 00:15:00,66.4,54.7,30.11,WSW,240,0.0,0.0,66,0.00,,,0.00,0,Wunderground v.1.15,2017-06-29 04:15:00,
2017-06-29 00:21:00,66.3,54.2,30.11,WSW,240,0.0,0.0,65,0.00,,,0.00,0,Wunderground v.1.15,2017-06-29 04:21:00,
2017-06-29 00:26:00,66.1,54.4,30.12,WSW,240,0.0,0.0,66,0.00,,,0.00,0,Wunderground v.1.15,2017-06-29 04:26:00,
2017-06-29 00:31:00,65.9,54.2,30.11,WSW,240,0.0,0.0,66,0.00,,,0.00,0,Wunderground v.1.15,2017-06-29 04:31:00,
2017-06-29 00:37:00,65.7,54.4,30.11,WSW,240,0.0,0.0,67,0.00,,,0.00,0,Wunderground v.1.15,2017-06-29 04:37:00,
2017-06-29 00:42:00,65.4,54.6,30.12,WSW,240,0.0,0.0,68,0.00,,,0.00,0,Wunderground v.1.15,2017-06-29 04:42:00,
2017-06-29 00:48:00,65.1,54.3,30.12,WSW,240,0.0,0.0,68,0.00,,,0.00,0,Wunderground v.1.15,2017-06-29 04:48:00,
2017-06-29 00:53:00,64.9,54.5,30.12,WSW,240,0.0,0.0,69,0.00,,,0.00,0,Wunderground v.1.15,2017-06-29 04:53:00,
2017-06-29 00:59:00,64.7,54.3,30.13,WSW,240,0.0,0.0,69,0.00,,,0.00,0,Wunderground v.1.15,2017-06-29 04:59:00,
2017-06-29 01:05:00,64.5,54.5,30.13,WSW,240,0.0,0.0,70,0.00,,,0.00,0,Wunderground v.1.15,2017-06-29 05:05:00,
2017-06-29 01:11:00,64.4,54.4,30.13,WSW,240,0.0,0.0,70,0.00,,,0.00,0,Wunderground v.1.15,2017-06-29 05:11:00,
2017-06-29 01:16:00,64.3,53.9,30.13,WSW,240,0.0,0.0,69,0.00,,,0.00,0,Wunderground v.1.15,2017-06-29 05:16:00,
2017-06-29 01:21:00,64.3,54.3,30.13,WSW,240,0.0,0.0,70,0.00,,,0.00,0,Wunderground v.1.15,2017-06-29 05:21:00,
2017-06-29 01:26:00,64.3,54.3,30.13,WSW,240,0.0,0.0,70,0.00,,,0.00,0,Wunderground v.1.15,2017-06-29 05:26:00,
2017-06-29 01:31:00,64.2,54.2,30.13,WSW,240,0.0,0.0,70,0.00,,,0.00,0,Wunderground v.1.15,2017-06-29 05:31:00,
2017-06-29 01:37:00,64.1,54.1,30.13,WSW,240,0.0,0.0,70,0.00,,,0.00,0,Wunderground v.1.15,2017-06-29 05:37:00,
2017-06-29 01:42:00,64.0,54.0,30.13,WSW,240,0.0,0.0,70,0.00,,,0.00,0,Wunderground v.1.15,2017-06-29 05:42:00,
2017-06-29 01:47:00,63.9,53.9,30.13,WSW,240,0.0,0.0,70,0.00,,,0.00,0,Wunderground v.1.15,2017-06-29 05:47:00,
2017-06-29 01:53:00,63.8,53.8,30.13,WSW,240,0.0,0.0,70,0.00,,,0.00,0,Wunderground v.1.15,2017-06-29 05:53:00,
2017-06-29 01:58:00,63.8,53.8,30.13,WSW,240,0.0,0.0,70,0.00,,,0.00,0,Wunderground v.1.15,2017-06-29 05:58:00,
2017-06-29 02:03:00,63.8,53.8,30.13,WSW,240,0.0,1.0,70,0.00,,,0.00,0,Wunderground v.1.15,2017-06-29 06:03:00,
2017-06-29 02:08:00,63.9,53.9,30.13,WSW,240,0.0,1.0,70,0.00,,,0.00,0,Wunderground v.1.15,2017-06-29 06:08:00,
2017-06-29 02:13:00,64.0,53.6,30.13,WSW,240,0.0,1.0,69,0.00,,,0.00,0,Wunderground v.1.15,2017-06-29 06:13:00,
2017-06-29 02:18:00,64.1,53.7,30.13,WSW,240,0.0,1.0,69,0.00,,,0.00,0,Wunderground v.1.15,2017-06-29 06:18:00,
2017-06-29 02:23:00,64.2,53.8,30.13,WSW,240,0.0,2.0,69,0.00,,,0.00,0,Wunderground v.1.15,2017-06-29 06:23:00,
2017-06-29 02:28:00,64.2,53.8,30.13,WSW,240,0.0,2.0,69,0.00,,,0.00,0,Wunderground v.1.15,2017-06-29 06:28:00,
2017-06-29 02:33:00,64.3,53.5,30.13,WSW,240,0.0,1.0,68,0.00,,,0.00,0,Wunderground v.1.15,2017-06-29 06:33:00,
2017-06-29 02:39:00,64.3,53.5,30.14,WSW,240,0.0,1.0,68,0.00,,,0.00,0,Wunderground v.1.15,2017-06-29 06:39:00,
2017-06-29 02:44:00,64.3,53.9,30.14,WSW,240,0.0,0.0,69,0.00,,,0.00,0,Wunderground v.1.15,2017-06-29 06:44:00,
2017-06-29 02:49:00,64.1,53.7,30.13,WSW,240,0.0,0.0,69,0.00,,,0.00,0,Wunderground v.1.15,2017-06-29 06:49:00,
2017-06-29 02:54:00,63.9,53.5,30.14,WSW,240,0.0,0.0,69,0.00,,,0.00,0,Wunderground v.1.15,2017-06-29 06:54:00,
2017-06-29 02:59:00,63.8,54.2,30.14,WSW,240,0.0,0.0,71,0.00,,,0.00,0,Wunderground v.1.15,2017-06-29 06:59:00,
2017-06-29 03:05:00,63.7,54.1,30.14,WSW,240,0.0,0.0,71,0.00,,,0.00,0,Wunderground v.1.15,2017-06-29 07:05:00,
2017-06-29 03:10:00,63.5,53.9,30.14,WSW,240,0.0,0.0,71,0.00,,,0.00,0,Wunderground v.1.15,2017-06-29 07:10:00,
2017-06-29 03:15:00,63.4,53.8,30.14,WSW,240,0.0,0.0,71,0.00,,,0.00,0,Wunderground v.1.15,2017-06-29 07:15:00,
2017-06-29 03:20:00,63.3,53.7,30.14,WSW,240,0.0,0.0,71,0.00,,,0.00,0,Wunderground v.1.15,2017-06-29 07:20:00,
2017-06-29 03:25:00,63.2,54.0,30.14,WSW,240,0.0,0.0,72,0.00,,,0.00,0,Wunderground v.1.15,2017-06-29 07:25:00,
2017-06-29 03:30:00,63.0,54.2,30.14,WSW,240,0.0,0.0,73,0.00,,,0.00,0,Wunderground v.1.15,2017-06-29 07:30:00,
2017-06-29 03:35:00,62.9,54.1,30.14,WSW,240,0.0,0.0,73,0.00,,,0.00,0,Wunderground v.1.15,2017-06-29 07:35:00,
2017-06-29 03:40:00,62.8,54.4,30.14,WSW,240,0.0,0.0,74,0.00,,,0.00,0,Wunderground v.1.15,2017-06-29 07:40:00,
2017-06-29 03:45:00,62.7,54.3,30.14,WSW,240,0.0,0.0,74,0.00,,,0.00,0,Wunderground v.1.15,2017-06-29 07:45:00,
2017-06-29 03:50:00,62.6,54.2,30.14,WSW,240,0.0,0.0,74,0.00,,,0.00,0,Wunderground v.1.15,2017-06-29 07:50:00,
2017-06-29 03:55:00,62.5,54.1,30.14,WSW,240,0.0,0.0,74,0.00,,,0.00,0,Wunderground v.1.15,2017-06-29 07:55:00,
2017-06-29 04:00:00,62.5,54.1,30.14,WSW,240,0.0,0.0,74,0.00,,,0.00,0,Wunderground v.1.15,2017-06-29 08:00:00,
2017-06-29 04:05:00,62.5,54.1,30.14,WSW,240,0.0,0.0,74,0.00,,,0.00,0,Wunderground v.1.15,2017-06-29 08:05:00,
2017-06-29 04:10:00,62.5,54.5,30.15,WSW,240,0.0,0.0,75,0.00,,,0.00,0,Wunderground v.1.15,2017-06-29 08:10:00,
2017-06-29 04:15:00,62.4,54.7,30.15,WSW,240,0.0,0.0,76,0.00,,,0.00,0,Wunderground v.1.15,2017-06-29 08:15:00,
2017-06-29 04:20:00,62.3,55.0,30.15,WSW,240,0.0,0.0,77,0.00,,,0.00,0,Wunderground v.1.15,2017-06-29 08:20:00,
2017-06-29 04:25:00,62.0,54.3,30.15,WSW,240,0.0,0.0,76,0.00,,,0.00,0,Wunderground v.1.15,2017-06-29 08:25:00,
2017-06-29 04:30:00,61.7,55.1,30.15,WSW,240,0.0,0.0,79,0.00,,,0.00,0,Wunderground v.1.15,2017-06-29 08:30:00,
2017-06-29 04:35:00,61.3,55.4,30.15,WSW,240,0.0,0.0,81,0.00,,,0.00,0,Wunderground v.1.15,2017-06-29 08:35:00,
2017-06-29 04:40:00,61.1,55.2,30.15,WSW,240,0.0,0.0,81,0.00,,,0.00,0,Wunderground v.1.15,2017-06-29 08:40:00,
2017-06-29 04:45:00,60.9,55.4,30.15,WSW,240,0.0,0.0,82,0.00,,,0.00,0,Wunderground v.1.15,2017-06-29 08:45:00,
2017-06-29 04:50:00,60.8,55.3,30.15,WSW,240,0.0,0.0,82,0.00,,,0.00,0,Wunderground v.1.15,2017-06-29 08:50:00,
2017-06-29 04:55:00,60.6,54.7,30.14,WSW,240,0.0,0.0,81,0.00,,,0.00,0,Wunderground v.1.15,2017-06-29 08:55:00,
2017-06-29 05:00:00,60.5,54.6,30.14,WSW,240,0.0,0.0,81,0.00,,,0.00,0,Wunderground v.1.15,2017-06-29 09:00:00,
2017-06-29 05:05:00,60.4,54.5,30.14,WSW,240,0.0,0.0,81,0.00,,,0.00,0,Wunderground v.1.15,2017-06-29 09:05:00,
2017-06-29 05:10:00,60.3,55.1,30.15,WSW,240,0.0,0.0,83,0.00,,,0.00,0,Wunderground v.1.15,2017-06-29 09:10:00,
2017-06-29 05:15:00,60.2,55.0,30.15,WSW,240,0.0,0.0,83,0.00,,,0.00,0,Wunderground v.1.15,2017-06-29 09:15:00,
2017-06-29 05:20:00,60.1,55.2,30.15,WSW,240,0.0,0.0,84,0.00,,,0.00,0,Wunderground v.1.15,2017-06-29 09:20:00,
2017-06-29 05:25:00,59.9,55.1,30.15,WSW,240,0.0,0.0,84,0.00,,,0.00,0,Wunderground v.1.15,2017-06-29 09:25:00,
2017-06-29 05:30:00,59.7,54.5,30.15,WSW,240,0.0,0.0,83,0.00,,,0.00,0,Wunderground v.1.15,2017-06-29 09:30:00,
2017-06-29 05:35:00,59.5,54.7,30.15,WSW,240,0.0,0.0,84,0.00,,,0.00,0,Wunderground v.1.15,2017-06-29 09:35:00,
2017-06-29 05:40:00,59.3,54.5,30.15,WSW,240,0.0,0.0,84,0.00,,,0.00,0,Wunderground v.1.15,2017-06-29 09:40:00,
2017-06-29 05:45:00,59.0,54.5,30.15,WSW,240,0.0,0.0,85,0.00,,,0.00,0,Wunderground v.1.15,2017-06-29 09:45:00,
2017-06-29 05:50:00,59.0,54.5,30.15,WSW,240,0.0,0.0,85,0.00,,,0.00,5,Wunderground v.1.15,2017-06-29 09:50:00,
2017-06-29 05:55:00,59.0,54.5,30.14,WSW,240,0.0,0.0,85,0.00,,,0.00,7,Wunderground v.1.15,2017-06-29 09:55:00,
2017-06-29 06:00:00,59.0,54.8,30.14,WSW,240,0.0,0.0,86,0.00,,,0.00,9,Wunderground v.1.15,2017-06-29 10:00:00,
2017-06-29 06:06:00,59.0,54.8,30.15,WSW,240,0.0,0.0,86,0.00,,,0.00,12,Wunderground v.1.15,2017-06-29 10:06:00,
2017-06-29 06:11:00,59.0,55.1,30.14,WSW,240,0.0,0.0,87,0.00,,,0.00,14,Wunderground v.1.15,2017-06-29 10:11:00,
2017-06-29 06:16:00,59.0,55.1,30.14,WSW,240,0.0,0.0,87,0.00,,,0.00,16,Wunderground v.1.15,2017-06-29 10:16:00,
2017-06-29 06:21:00,59.0,55.1,30.14,WSW,240,0.0,1.0,87,0.00,,,0.00,12,Wunderground v.1.15,2017-06-29 10:21:00,
2017-06-29 06:26:00,59.0,55.1,30.15,WSW,240,0.0,1.0,87,0.00,,,0.00,11,Wunderground v.1.15,2017-06-29 10:26:00,
2017-06-29 06:31:00,59.0,55.1,30.15,WSW,240,0.0,0.0,87,0.00,,,0.00,11,Wunderground v.1.15,2017-06-29 10:31:00,
2017-06-29 06:36:00,59.0,55.4,30.15,WSW,240,0.0,0.0,88,0.00,,,0.00,11,Wunderground v.1.15,2017-06-29 10:36:00,
2017-06-29 06:41:00,59.0,55.4,30.15,WSW,240,0.0,0.0,88,0.00,,,0.00,11,Wunderground v.1.15,2017-06-29 10:41:00,
2017-06-29 06:46:00,59.0,55.4,30.15,WSW,240,0.0,1.0,88,0.00,,,0.00,14,Wunderground v.1.15,2017-06-29 10:46:00,
2017-06-29 06:51:00,59.0,55.4,30.16,WSW,240,0.0,0.0,88,0.00,,,0.00,19,Wunderground v.1.15,2017-06-29 10:51:00,
2017-06-29 06:56:00,59.0,55.4,30.15,WSW,240,0.0,0.0,88,0.00,,,0.00,16,Wunderground v.1.15,2017-06-29 10:56:00,
2017-06-29 07:01:00,59.0,55.4,30.15,WSW,240,0.0,0.0,88,0.00,,,0.00,18,Wunderground v.1.15,2017-06-29 11:01:00,
2017-06-29 07:06:00,59.0,55.4,30.15,WSW,240,0.0,0.0,88,0.00,,,0.00,18,Wunderground v.1.15,2017-06-29 11:06:00,
2017-06-29 07:11:00,59.0,55.4,30.15,WSW,240,0.0,0.0,88,0.00,,,0.00,26,Wunderground v.1.15,2017-06-29 11:11:00,
2017-06-29 07:16:00,59.0,55.4,30.15,WSW,240,0.0,0.0,88,0.00,,,0.00,25,Wunderground v.1.15,2017-06-29 11:16:00,
2017-06-29 07:21:00,59.2,55.6,30.15,WSW,240,0.0,0.0,88,0.00,,,0.00,35,Wunderground v.1.15,2017-06-29 11:21:00,
2017-06-29 07:26:00,59.5,56.3,30.15,WSW,240,0.0,0.0,89,0.00,,,0.00,40,Wunderground v.1.15,2017-06-29 11:26:00,
2017-06-29 07:31:00,59.8,56.6,30.15,WSW,240,0.0,0.0,89,0.00,,,0.00,37,Wunderground v.1.15,2017-06-29 11:31:00,
2017-06-29 07:36:00,60.2,56.9,30.15,WSW,240,0.0,1.0,89,0.00,,,0.00,47,Wunderground v.1.15,2017-06-29 11:36:00,
2017-06-29 07:41:00,60.9,57.3,30.15,WSW,240,0.0,0.0,88,0.00,,,0.00,51,Wunderground v.1.15,2017-06-29 11:41:00,
2017-06-29 07:46:00,61.8,57.6,30.15,WSW,240,0.0,1.0,86,0.00,,,0.00,47,Wunderground v.1.15,2017-06-29 11:46:00,
2017-06-29 07:51:00,62.7,58.1,30.15,WSW,240,0.0,0.0,85,0.00,,,0.00,60,Wunderground v.1.15,2017-06-29 11:51:00,
2017-06-29 07:56:00,63.3,58.4,30.15,WSW,240,0.0,1.0,84,0.00,,,0.00,58,Wunderground v.1.15,2017-06-29 11:56:00,
2017-06-29 08:01:00,64.1,58.5,30.15,WSW,240,0.0,2.0,82,0.00,,,0.00,40,Wunderground v.1.15,2017-06-29 12:01:00,
2017-06-29 08:06:00,64.8,58.8,30.15,WSW,240,0.0,3.0,81,0.00,,,0.00,63,Wunderground v.1.15,2017-06-29 12:06:00,
2017-06-29 08:11:00,65.4,59.1,30.15,WSW,240,0.0,1.0,80,0.00,,,0.00,74,Wunderground v.1.15,2017-06-29 12:11:00,
2017-06-29 08:17:00,66.1,59.4,30.15,West,262,0.0,4.0,79,0.00,,,0.00,62,Wunderground v.1.15,2017-06-29 12:17:00,
2017-06-29 08:22:00,66.6,59.5,30.14,West,263,1.0,2.0,78,0.00,,,0.00,37,Wunderground v.1.15,2017-06-29 12:22:00,
2017-06-29 08:27:00,67.1,60.0,30.14,West,263,0.0,2.0,78,0.00,,,0.00,51,Wunderground v.1.15,2017-06-29 12:27:00,
2017-06-29 08:32:00,67.6,60.1,30.14,SW,236,0.0,5.0,77,0.00,,,0.00,121,Wunderground v.1.15,2017-06-29 12:32:00,
2017-06-29 08:37:00,68.0,60.2,30.14,WSW,238,0.0,5.0,76,0.00,,,0.00,100,Wunderground v.1.15,2017-06-29 12:37:00,
2017-06-29 08:40:00,68.2,60.3,30.14,WSW,238,0.0,1.0,76,0.00,,,0.00,84,Wunderground v.1.15,2017-06-29 12:40:00,
2017-06-29 08:45:00,68.6,60.4,30.13,SSW,205,3.0,5.0,75,0.00,,,0.00,137,Wunderground v.1.15,2017-06-29 12:45:00,
2017-06-29 08:50:00,69.0,60.7,30.13,SW,224,2.0,2.0,75,0.00,,,0.00,234,Wunderground v.1.15,2017-06-29 12:50:00,
2017-06-29 08:55:00,69.3,60.7,30.13,WSW,242,3.0,8.0,74,0.00,,,0.00,51,Wunderground v.1.15,2017-06-29 12:55:00,
2017-06-29 09:00:00,69.5,60.8,30.13,WSW,242,0.0,2.0,74,0.00,,,0.00,56,Wunderground v.1.15,2017-06-29 13:00:00,
2017-06-29 09:05:00,69.8,60.8,30.13,West,269,0.0,6.0,73,0.00,,,0.00,56,Wunderground v.1.15,2017-06-29 13:05:00,